カタログに戻る

FENGYUN 1C DEB

LostSSO
NORAD 31851·DEBRIS·🇨🇳 China

打ち上げ May 10, 1999 から Taiyuan Satellite Launch Center

Loading…

次のパス (今後24時間)

TLE

古いSource: Space-Track

元期: Jun 23, 2026, 09:04 UTC

1 31851U 99025CJR 26174.37811094  .00002008  00000-0  15580-2 0  9997
2 31851  98.7874  22.1027 0200908 118.9912 243.1545 13.84589353641326

AllMySatでFENGYUN 1C DEBをリアルタイム追跡

Download on the App Store